Other Public Products
Issued by NWS Grand Forks, ND

Home | Current Version | Previous Version | Graphics & Text | Print | Product List | Glossary On
Versions: 1 2 3 4 5 6 7 8 9 10 11 12 13 14 15 16 17 18 19 20 21 22 23 24 25 26 27 28 29 30 31 32 33 34 35 36 37 38 39 40 41 42 43 44 45 46 47 48 49 50
000
FPUS83 KFGF 301510
OPUFGF
PRAIRIE TO PINES WEATHER ROUNDUP
NATIONAL WEATHER SERVICE EASTERN NORTH DAKOTA/GRAND FORKS ND
1000 AM CDT MON MAR 30 2015

 **SATELLITE DATA USED TO AUGMENT SKY COVER AT AUTOMATED STATIONS**
 *****  WEATHER ACROSS EASTERN NORTH DAKOTA  *****

CITY           SKY/WX    TMP DP  RH WIND       PRES   REMARKS
GRAND FORKS    LGT RAIN  38  34  85 VRB6      29.86F
GRAND FORKS AF DRIZZLE   39  35  87 SE7       29.84F
GRAND CITY NWS   N/A     37 N/A N/A SE6         N/A
BUXTON         NOT AVBL
DEVILS LAKE    PTSUNNY   41  34  75 SE10      29.77S
FARGO          CLOUDY    42  32  67 SE6       29.85S
WAHPETON ARPT  CLOUDY    39  32  75 SE7       29.85F
$$

 *****  WEATHER ACROSS CENTRAL AND WESTERN NORTH DAKOTA  *****

CITY           SKY/WX    TMP DP  RH WIND       PRES   REMARKS
JAMESTOWN      CLOUDY    44  34  67 CALM      29.80R
BISMARCK       MOSUNNY   51  34  52 W14       29.85S
MINOT          SUNNY     49  34  56 W15G26    29.81R
MINOT AFB      SUNNY     48  40  73 NW20      29.80R
GARRISON         N/A     50  35  56 NW21G31   29.83R
WILLISTON      SUNNY     51  36  56 NW13      29.91R
DICKINSON      MOSUNNY   53  33  46 W24G32    29.89R
HETTINGER      PTSUNNY   53  31  42 W26G33    29.95S
$$

 *****  OTHER OBSERVATIONS NORTHEAST NORTH DAKOTA  *****

CITY           SKY/WX    TMP DP  RH WIND       PRES   REMARKS
WALHALLA         N/A     41  34  75 SE5       29.84R
LANGDON        NOT AVBL
CAVALIER       FAIR      39  32  75 SE6       29.83F
GRAFTON        NOT AVBL
CANDO          NOT AVBL
FORT TOTTEN      N/A     45  36  70 S7        29.95
ROLLA          PTSUNNY   36  36 100 SE6       29.81R
RUGBY          NOT AVBL
 ***** THE ABOVE OBSERVATIONS ARE NON NWS ARE NOT QUALITY
        CONTROLLED AND MAY MIS-REPORT RAIN FOR SNOW...
$$

 *****  OTHER OBSERVATIONS SOUTHEAST NORTH DAKOTA *****

CITY           SKY/WX    TMP DP  RH WIND       PRES   REMARKS
COOPERSTOWN    NOT AVBL
VALLEY CITY    CLOUDY    39  36  87 E3        29.82S
OAKES            N/A     43  36  75 SW6       29.82F
GWINNER        PTSUNNY   45  34  65 SW14        N/A
SHEYENNE NWR     N/A     46  31  55 SW10      29.95S
BUFFALO        NOT AVBL
WYNDMERE       NOT AVBL
 ***** THE ABOVE OBSERVATIONS ARE NON NWS ARE NOT QUALITY
       CONTROLLED AND MAY MIS-REPORT RAIN FOR SNOW...
$$

  *****  WEATHER ACROSS NORTHERN MINNESOTA  *****

CITY           SKY/WX    TMP DP  RH WIND       PRES   REMARKS
FLAG ISLAND    CLOUDY    30  28  93 SE5       29.85S
WARROAD        CLOUDY    37  32  81 CALM      29.86F
ROSEAU         CLOUDY    37  30  75 CALM      29.86S
HALLOCK        CLOUDY    39  36  87 E6        29.85F
THF RVR FALLS  CLOUDY    39  30  70 E6        29.87F
HALSTAD        NOT AVBL
FOSSTON        CLOUDY    36  36 100 CALM      29.88F
BAUDETTE       PTSUNNY   39  30  70 S6        29.86S
WASKISH        CLOUDY    37  32  81 CALM      29.89S
CROOKSTON      CLOUDY    37  32  81 SE5       29.88S
$$
  *****  WEATHER ACROSS CENTRAL AND WEST MINNESOTA  *****

CITY           SKY/WX    TMP DP  RH WIND       PRES   REMARKS
BEMIDJI        CLOUDY    36  31  82 CALM      29.90S
PARK RAPIDS    CLOUDY    38  30  73 E3        29.90S
WADENA         CLOUDY    39  30  70 E5        29.87F
DETROIT LAKES  CLOUDY    39  32  75 E6        29.87F
MOORHEAD       CLOUDY    43  37  81 SE3       29.86S
FERGUS FALLS   CLOUDY    41  28  60 E7        29.87S
ELBOW LAKE     CLOUDY    38  31  74 SE8       29.86S
MORRIS MN      CLOUDY    39  32  75 SE8       29.86F
STAPLES        CLOUDY    37  30  75 E6        29.90F
WHEATON        CLOUDY    46  32  57 S6        29.87F
$$
  *****  WEATHER ELSEWHERE ACROSS MINNESOTA  *****

CITY           SKY/WX    TMP DP  RH WIND       PRES   REMARKS
DULUTH         MOSUNNY   45  25  45 NW6       29.91R
INTRNTL FALLS  MOSUNNY   41  27  57 VRB3      29.88S
ELY            SUNNY     41  23  48 NW8       29.87S
CLOQUET        MOSUNNY   45  27  49 CALM      29.91S
BRAINERD       CLOUDY    37  30  75 CALM      29.93R
HIBBING        MOSUNNY   44  24  45 NW5       29.90R
ALEXANDRIA     CLOUDY    40  30  67 E7        29.89S
SAINT CLOUD    CLOUDY    39  30  70 CALM      29.92F
MINNEAPOLIS    CLOUDY    41  28  60 CALM      29.94F
$$

  *****  WEATHER ACROSS SOUTH DAKOTA  *****

CITY           SKY/WX    TMP DP  RH WIND       PRES   REMARKS
SIOUX FALLS    PTSUNNY   55  21  26 SW8G17    29.92F
BROOKINGS      NOT AVBL
WATERTOWN      MOSUNNY   50  30  46 SW9       29.88F
HURON          CLOUDY    49  28  44 CALM      29.90F
SISSETON         N/A     53  32  44 W13       29.82F
ABERDEEN       MOSUNNY   48  31  51 SW7       29.87F
MITCHELL       PTSUNNY   56  24  29 W16       29.92S
PIERRE         CLOUDY    48  31  51 W12       29.94R
MOBRIDGE       PTSUNNY   51  33  50 NW10      29.87S
RAPID CITY     PTSUNNY   57  26  30 NW15      30.03R
$$

  *****  SOME WEATHER IN NEARBY STATES *****

CITY           SKY/WX    TMP DP  RH WIND       PRES   REMARKS
GLASGOW MT     SUNNY     48  33  56 NW12      29.99R
GREAT FALLS MT CLOUDY    53  32  44 SW14      30.07R
CHEYENNE WY    SUNNY     53  17  24 W13       30.18R
SCOTTSBLUFF NE SUNNY     48  27  44 NW10      30.11R
OMAHA NE       MOSUNNY   53  28  38 S10       30.08F
DES MOINES IA  MOSUNNY   56  26  31 SW13      30.09F
DAVENPORT IA   SUNNY     49  31  49 W14       30.09F
CHICAGO IL     PTSUNNY   46  30  53 W13       30.06R
EAU CLAIRE WI  PTSUNNY   44  29  55 SW6       29.96S
LA CROSSE WI   MOSUNNY   48  30  49 S9        29.98F
$$

  *****  SOME NATIONAL WEATHER *****

CITY           SKY/WX    TMP DP  RH WIND       PRES   REMARKS
LA GUARDIA NY  CLOUDY    39  30  70 SW13      29.87F
RALEIGH NC     LGT RAIN  41  39  93 SW10      30.08F FOG
ATLANTA GA     CLOUDY    58  54  86 W12       30.16R
NEW ORLEANS LA MOSUNNY   73  64  73 W8        30.26R
OKLAHOMA CITY  MOSUNNY   60  40  47 SE10      30.22R
ALBUQUERQUE NM MOSUNNY   55  24  30 SE6       30.28R
SALT LAKE CITY SUNNY     51  27  39 CALM      30.23R
LOS ANGELES CA CLOUDY    59  55  88 VRB3      30.03R FOG
BOISE ID       SUNNY     46  32  58 CALM      30.17S
SEATTLE WA     PTSUNNY   52  48  86 SW7       30.10S
$$

*** WEATHER ACROSS MANITOBA...SASKATCHEWAN AND ONTARIO ***
                ***ONTARIO***

CITY           SKY/WX    TMP DP  RH WIND       PRES   REMARKS
GERALDTON      NOT AVBL
THUNDER BAY    PTSUNNY   34  25  69 W9        29.89R
SIOUX LOOKOUT  PTSUNNY   27  19  74 N6        29.88R WCI  20
TORONTO        PTSUNNY   41  28  60 W21G35    29.73R
BIG TROUT LK   SUNNY      1  -4  78 NW7       29.95R WCI -11
PICKLE LAKE    MOSUNNY   18   7  62 VRB2      29.88S
DRYDEN         SUNNY     30  25  80 E3        29.87R
KENORA         PTSUNNY   37  25  60 SE3       29.86S
$$
                *** MANITOBA***

CITY           SKY/WX    TMP DP  RH WIND       PRES   REMARKS
BRANDON        NOT AVBL
DAUPHIN        LGT RAIN  41  36  81 SW8       29.79F
ISLAND LAKE    CLOUDY    12   9  85 E7        29.90R WCI   2
PILOT MOUND      N/A     37  32  81 SE7         N/A
THE PAS        LGT RAIN  34  32  93 SE3       29.70S
THOMPSON       PTSUNNY   16  10  79 SE3       29.83S
WINNIPEG       NOT AVBL
LYNN LAKE      FOG       19  19 100 E5        29.74R VSB 3/8 WCI  13
CHURCHILL      PTSUNNY    1  -2  85 N9        29.99S WCI -14
GILLAM         MOSUNNY    7  -2  66 E3        29.94F
$$
                ***SASKATCHEWAN***

CITY           SKY/WX    TMP DP  RH WIND       PRES   REMARKS
ESTEVAN        MOSUNNY   43  36  75 W9        29.87R
KINDERSLEY     PTSUNNY   43  32  65 NW12G18   29.96R
LLOYDMINSTER   SUNNY     39  30  70 W16       29.89R
PRINCE ALBERT  MOSUNNY   45  36  70 NW18      29.77S
REGINA         MOSUNNY   46  39  76 NW15      29.89R



USA.gov is the U.S. government's official web portal to all federal, state and local government web resources and services.